Location: Newark
(45.5167°N, 11.1667°E)
Time: 19:26:05
(UTC+00:00)

Explorer 7 - Pass Details

Date: 16 December 2019
Orbit: 485 x 679 km, 50.3° (Epoch: 26 January)

Event Time Altitude Azimuth Distance (km) Brightness Sun altitude
Rises 11:58:27 0° 204° (SSW) 2,879 12.0 20.3°
Reaches altitude 10° 12:01:01 10° 191° (S) 2,009 12.1 20.2°
Maximum altitude 12:04:48 25° 136° (SE) 1,304 9.4 20.1°
Drops below altitude 10° 12:08:45 10° 81° (E) 2,092 9.6 19.9°
Sets 12:11:28 0° 69° (ENE) 3,024 10.3 19.8°
